M9XDX-WX Weather Reports


time (UTC)temp
C
wind
direction
speed
KPH
gust
KPH
rain 1hr
cm
rain 24hr
cm
rain mn
cm
humidity
%
barometer
mb
20260508030003 10 25 0.0 3.2 0.00 0.00 0.00 77 1014.2
20260508025220 10 25 0.0 1.6 0.00 0.00 0.00 77 1014.4
20260508024003 10 25 0.0 3.2 0.00 0.00 0.00 77 1014.4
20260508023003 10 25 0.0 1.6 0.00 0.00 0.00 76 1014.3
20260508022217 10 25 0.0 1.6 0.00 0.00 0.00 75 1014.5
20260508021218 10 0 0.0 0.0 0.00 0.00 0.00 74 1014.1
20260508020003 10 25 0.0 1.6 0.00 0.00 0.00 73 1014.1
20260508015003 10 25 0.0 1.6 0.00 0.00 0.00 74 1014.3
20260508014003 10 25 0.0 1.6 0.00 0.00 0.00 74 1014.2
20260508013003 10 25 0.0 1.6 0.00 0.00 0.00 76 1014.2
20260508012218 10 0 0.0 0.0 0.00 0.00 0.00 79 1014.2
20260508011003 10 25 0.0 4.8 0.00 0.00 0.00 80 1014.1
20260508010003 10 25 1.6 4.8 0.00 0.00 0.00 86 1014.2
20260508005220 10 25 1.6 3.2 0.00 0.00 0.00 87 1014.1
20260508004003 10 25 0.0 1.6 0.00 0.00 0.00 87 1014.3
20260508003218 10 25 0.0 1.6 0.00 0.00 0.00 87 1014.2
20260508002003 9 0 0.0 0.0 0.00 0.00 0.00 88 1014.3
20260508001219 9 0 0.0 0.0 0.00 0.00 0.00 88 1014.3
20260508000220 10 25 0.0 1.6 0.00 0.00 0.00 88 1014.2
20260507235003 10 25 0.0 1.6 0.00 0.00 0.00 87 1014.3
20260507234003 10 25 0.0 1.6 0.00 0.00 0.00 87 1014.3
20260507233003 10 25 0.0 1.6 0.00 0.00 0.00 86 1014.4
20260507232003 10 0 0.0 0.0 0.00 0.00 0.00 86 1014.4
20260507231003 10 0 0.0 0.0 0.00 0.00 0.00 84 1014.5
20260507230003 11 0 0.0 0.0 0.00 0.00 0.00 84 1014.3
20260507225217 11 0 0.0 0.0 0.00 0.00 0.00 84 1014.6
20260507224218 10 0 0.0 0.0 0.00 0.00 0.00 85 1014.5
20260507223003 11 0 0.0 0.0 0.00 0.00 0.00 84 1014.4
20260507222220 11 0 0.0 0.0 0.00 0.00 0.00 85 1014.3
20260507221221 11 0 0.0 0.0 0.00 0.00 0.00 84 1014.2
20260507220003 11 0 0.0 0.0 0.00 0.00 0.00 84 1014.5
20260507215003 11 0 0.0 0.0 0.00 0.00 0.00 83 1014.4
20260507214003 11 0 0.0 0.0 0.00 0.00 0.00 83 1014.4
20260507213219 11 0 0.0 0.0 0.00 0.00 0.00 83 1014.1
20260507212003 11 0 0.0 0.0 0.00 0.00 0.00 82 1014.1
20260507211221 11 0 0.0 0.0 0.00 0.00 0.00 82 1014.3
20260507210003 11 0 0.0 0.0 0.00 0.00 0.00 80 1014.1
20260507205218 11 0 0.0 0.0 0.00 0.00 0.00 80 1014.1
20260507204003 11 0 0.0 0.0 0.00 0.00 0.00 79 1014.0
20260507203003 11 25 0.0 1.6 0.00 0.00 0.00 79 1014.0
20260507202003 12 25 0.0 1.6 0.00 0.00 0.00 78 1013.9
20260507201003 12 0 0.0 0.0 0.00 0.00 0.00 77 1013.7
20260507200218 12 0 0.0 0.0 0.00 0.00 0.00 76 1013.9
20260507195219 12 0 0.0 0.0 0.00 0.00 0.00 75 1013.7
20260507194003 12 0 0.0 0.0 0.00 0.00 0.00 74 1013.7
20260507193220 12 0 0.0 0.0 0.00 0.00 0.00 74 1013.6
20260507192003 12 25 0.0 1.6 0.00 0.00 0.00 74 1013.4
20260507191003 12 25 0.0 1.6 0.00 0.00 0.00 73 1013.5
20260507190004 12 26 0.0 1.6 0.00 0.00 0.00 73 1013.5
20260507185219 12 25 0.0 1.6 0.00 0.00 0.00 72 1013.4
20260507184003 12 25 0.0 4.8 0.00 0.00 0.00 71 1013.8
20260507183221 12 25 1.6 4.8 0.00 0.00 0.00 72 1013.6
20260507182217 13 25 0.0 1.6 0.00 0.00 0.00 73 1013.5
20260507181003 13 25 0.0 3.2 0.00 0.00 0.00 72 1013.4
20260507180003 13 25 0.0 1.6 0.00 0.00 0.00 72 1013.3
20260507175003 13 25 0.0 1.6 0.00 0.00 0.00 73 1013.5
20260507174003 13 25 1.6 6.4 0.00 0.00 0.00 73 1013.1
20260507173003 13 23 3.2 6.4 0.00 0.00 0.00 73 1013.4
20260507172003 13 10 1.6 6.4 0.00 0.00 0.00 71 1013.4
20260507171003 13 359 3.2 6.4 0.00 0.00 0.00 69 1013.4
20260507170003 13 21 1.6 6.4 0.00 0.00 0.00 71 1013.4
20260507165003 13 19 1.6 6.4 0.00 0.00 0.00 72 1013.4
20260507164003 13 19 3.2 4.8 0.00 0.00 0.00 71 1013.3
20260507163003 13 19 1.6 4.8 0.00 0.00 0.00 70 1013.4
20260507162003 13 19 3.2 6.4 0.00 0.00 0.00 70 1013.3
20260507161003 13 19 1.6 3.2 0.00 0.00 0.00 69 1013.4
20260507160003 13 15 1.6 4.8 0.00 0.00 0.00 69 1013.5
20260507155221 13 5 1.6 4.8 0.00 0.00 0.00 70 1013.6
20260507154003 13 5 3.2 6.4 0.00 0.00 0.00 71 1013.6
20260507153003 13 19 1.6 11.3 0.00 0.00 0.00 70 1013.7
20260507152003 13 10 1.6 6.4 0.00 0.00 0.00 71 1013.4
20260507151003 13 20 4.8 12.9 0.00 0.00 0.00 72 1013.5
20260507150003 13 357 3.2 9.7 0.00 0.00 0.00 71 1013.5
20260507145003 13 16 1.6 4.8 0.00 0.00 0.00 70 1013.6
20260507144003 13 344 1.6 4.8 0.00 0.00 0.00 70 1013.4
20260507143003 13 318 1.6 3.2 0.00 0.00 0.00 68 1013.7
20260507142003 13 319 1.6 4.8 0.00 0.00 0.00 66 1013.6
20260507141003 14 324 1.6 3.2 0.00 0.00 0.00 63 1013.8
20260507140003 14 327 0.0 3.2 0.00 0.00 0.00 65 1013.5
20260507135003 13 329 0.0 3.2 0.00 0.00 0.00 69 1013.8
20260507134003 13 329 1.6 3.2 0.00 0.00 0.00 71 1013.9
20260507133003 13 327 1.6 4.8 0.00 0.00 0.00 72 1014.0
20260507132003 13 322 3.2 6.4 0.00 0.00 0.00 71 1014.1
20260507131003 13 6 1.6 4.8 0.00 0.00 0.00 67 1013.8
20260507130003 14 26 1.6 4.8 0.00 0.00 0.00 62 1013.8
20260507125003 14 26 1.6 4.8 0.00 0.00 0.00 60 1014.0
20260507124003 15 26 0.0 3.2 0.00 0.00 0.00 56 1013.9
20260507123003 14 26 1.6 3.2 0.00 0.00 0.00 60 1013.9
20260507122003 13 26 1.6 3.2 0.00 0.00 0.00 62 1014.1
20260507121003 13 26 1.6 4.8 0.00 0.00 0.00 63 1013.9
20260507120003 14 26 1.6 3.2 0.00 0.00 0.00 62 1014.2
20260507115003 14 20 3.2 6.4 0.00 0.00 0.00 62 1014.2
20260507114003 13 25 4.8 9.7 0.00 0.00 0.00 64 1014.2
20260507113003 13 26 4.8 6.4 0.00 0.00 0.00 63 1014.1
20260507112003 14 23 4.8 9.7 0.00 0.00 0.00 63 1014.4
20260507111003 13 24 4.8 9.7 0.00 0.00 0.00 67 1014.2
20260507110003 14 24 4.8 9.7 0.00 0.00 0.00 63 1014.2
20260507105003 13 24 4.8 9.7 0.00 0.00 0.00 66 1014.5
20260507104003 13 26 4.8 11.3 0.00 0.00 0.00 69 1014.6
20260507103003 13 21 3.2 6.4 0.00 0.00 0.00 69 1014.8
20260507102003 12 23 3.2 9.7 0.00 0.00 0.00 71 1015.0
20260507101218 12 25 4.8 9.7 0.00 0.00 0.00 72 1014.8
20260507100003 12 26 4.8 9.7 0.00 0.00 0.00 73 1014.8
20260507095003 11 25 6.4 12.9 0.00 0.00 0.00 75 1014.7
20260507094003 11 24 6.4 12.9 0.00 0.00 0.00 77 1014.8
20260507093003 10 25 6.4 11.3 0.00 0.00 0.00 79 1014.7
20260507092218 10 25 6.4 12.9 0.00 0.00 0.00 79 1014.8
20260507091003 10 26 6.4 11.3 0.00 0.00 0.00 79 1014.8
20260507090220 10 25 4.8 11.3 0.00 0.00 0.00 79 1014.9
20260507085003 10 25 4.8 11.3 0.00 0.00 0.00 81 1014.8
20260507084003 9 25 4.8 11.3 0.00 0.00 0.00 81 1015.1
20260507083003 9 24 4.8 9.7 0.00 0.00 0.00 82 1014.9
20260507082003 8 24 4.8 9.7 0.00 0.00 0.00 82 1015.0
20260507081003 8 25 3.2 9.7 0.00 0.00 0.00 83 1014.9
20260507080003 8 25 4.8 9.7 0.00 0.00 0.00 83 1015.0
20260507075003 8 21 3.2 9.7 0.00 0.00 0.00 83 1014.9
20260507074003 8 24 3.2 6.4 0.00 0.00 0.00 83 1015.2
20260507073003 8 27 4.8 12.9 0.00 0.00 0.00 83 1014.9
20260507072003 8 24 4.8 12.9 0.00 0.00 0.00 82 1014.5
20260507071003 8 26 4.8 12.9 0.00 0.00 0.00 83 1014.7
20260507070221 8 25 4.8 9.7 0.00 0.00 0.00 84 1014.6
20260507065217 8 24 3.2 6.4 0.00 0.00 0.00 85 1014.8
20260507064218 8 25 4.8 11.3 0.00 0.00 0.00 85 1014.5
20260507063219 7 25 4.8 11.3 0.00 0.00 0.00 85 1014.7
20260507062003 7 26 4.8 11.3 0.00 0.00 0.00 86 1014.5
20260507061003 7 26 4.8 11.3 0.00 0.00 0.00 86 1014.6
20260507060216 7 26 4.8 9.7 0.00 0.00 0.00 86 1014.5
20260507055217 7 25 4.8 9.7 0.00 0.00 0.00 86 1014.5
20260507054218 7 26 4.8 11.3 0.00 0.00 0.00 86 1014.3
20260507053003 7 26 4.8 9.7 0.00 0.00 0.00 86 1014.1
20260507052003 7 25 4.8 9.7 0.00 0.00 0.00 86 1014.4
20260507051003 7 25 4.8 9.7 0.00 0.00 0.00 86 1014.5
20260507050003 7 25 4.8 9.7 0.00 0.00 0.00 85 1014.1
20260507045003 7 24 3.2 6.4 0.00 0.00 0.00 84 1014.3
20260507044003 7 24 4.8 9.7 0.00 0.00 0.00 85 1014.4
20260507043003 7 24 3.2 9.7 0.00 0.00 0.00 84 1014.0
20260507042221 7 26 4.8 11.3 0.00 0.00 0.00 84 1014.2
20260507041003 7 26 4.8 11.3 0.00 0.00 0.00 84 1014.1
20260507040003 7 25 4.8 9.7 0.00 0.00 0.00 84 1014.1
20260507035003 7 26 4.8 11.3 0.00 0.00 0.00 84 1014.2
20260507034003 7 28 6.4 12.9 0.00 0.00 0.00 83 1014.1
20260507033221 7 28 6.4 11.3 0.00 0.00 0.00 83 1014.0
20260507032003 8 27 6.4 12.9 0.00 0.00 0.00 82 1014.3
20260507031217 8 26 4.8 11.3 0.00 0.00 0.00 82 1014.0
20260507030218 8 25 4.8 11.3 0.00 0.00 0.00 82 1014.3